Location: Jackson Park
(37.2862°N, 79.9123°W)
Time: 14:07:16
(UTC+00:00)

S-56A Canister/Altair - Pass Details

Date: 10 May 2026
Orbit: 633 x 2484 km, 38.9° (Epoch: 6 June)

Event Time Altitude Azimuth Distance (km) Brightness Sun altitude
Rises 01:11:04 0° 198° (SSW) 3,013 10.4 -10.5°
Reaches altitude 10° 01:14:41 10° 169° (S) 2,009 9.3 -11.1°
Enters shadow 01:16:08 13° 150° (SSE) 1,834 8.9 -11.3°
Maximum altitude 01:16:41 13° 142° (SE) 1,821 - -11.4°
Drops below altitude 10° 01:18:41 10° 115° (ESE) 2,023 - -11.7°
Sets 01:22:21 0° 86° (E) 3,056 - -12.4°
